TimeEDT,TemperatureF,Dew PointF,Humidity,Sea Level PressureIn,VisibilityMPH,Wind Direction,Wind SpeedMPH,Gust SpeedMPH,PrecipitationIn,Events,Conditions,WindDirDegrees,DateUTC
2:35 AM,71.6,69.8,94,29.78,10.0,South,4.6,-,N/A,,Overcast,180,2012-10-19 06:35:00
2:55 AM,71.6,69.8,94,29.77,10.0,South,5.8,-,N/A,,Overcast,180,2012-10-19 06:55:00
3:15 AM,71.6,69.8,94,29.77,10.0,South,4.6,-,N/A,,Overcast,170,2012-10-19 07:15:00
3:35 AM,71.6,69.8,94,29.78,10.0,West,9.2,-,N/A,,Overcast,270,2012-10-19 07:35:00
3:55 AM,69.8,69.8,100,29.77,1.8,WSW,4.6,-,0.32,Thunderstorm,Thunderstorm,250,2012-10-19 07:55:00
4:15 AM,69.8,69.8,100,29.77,7.0,WSW,5.8,-,N/A,,Overcast,240,2012-10-19 08:15:00
4:35 AM,69.8,69.8,100,29.77,7.0,SW,3.5,-,N/A,,Overcast,230,2012-10-19 08:35:00
5:15 AM,69.8,69.8,100,29.77,7.0,SW,3.5,-,N/A,Thunderstorm,Overcast,230,2012-10-19 09:15:00
5:55 AM,69.8,69.8,100,29.79,7.0,Calm,Calm,-,N/A,,Overcast,0,2012-10-19 09:55:00
6:15 AM,69.8,69.8,100,29.79,10.0,West,3.5,-,N/A,,Overcast,260,2012-10-19 10:15:00
6:35 AM,69.8,69.8,100,29.77,7.0,NW,3.5,-,N/A,,Mostly Cloudy,310,2012-10-19 10:35:00
6:55 AM,69.8,68.0,94,29.77,10.0,NW,3.5,-,N/A,,Scattered Clouds,310,2012-10-19 10:55:00
7:15 AM,68.0,68.0,100,29.79,10.0,Calm,Calm,-,N/A,,Clear,0,2012-10-19 11:15:00
7:35 AM,68.0,66.2,94,29.80,10.0,West,3.5,-,N/A,,Clear,270,2012-10-19 11:35:00
7:55 AM,66.2,64.4,94,29.80,10.0,Calm,Calm,-,N/A,,Clear,0,2012-10-19 11:55:00
8:15 AM,66.2,64.4,94,29.80,10.0,Calm,Calm,-,N/A,,Clear,0,2012-10-19 12:15:00
8:35 AM,66.2,64.4,94,29.80,10.0,Calm,Calm,-,N/A,,Clear,0,2012-10-19 12:35:00
8:55 AM,68.0,64.4,88,29.81,10.0,Calm,Calm,-,N/A,,Clear,0,2012-10-19 12:55:00
9:15 AM,68.0,60.8,78,29.82,10.0,Calm,Calm,-,N/A,,Clear,0,2012-10-19 13:15:00
9:35 AM,68.0,59.0,73,29.83,10.0,Calm,Calm,-,N/A,,Clear,0,2012-10-19 13:35:00
9:55 AM,69.8,55.4,60,29.85,10.0,Calm,Calm,-,N/A,,Clear,0,2012-10-19 13:55:00
10:15 AM,69.8,53.6,56,29.86,10.0,WNW,3.5,-,N/A,,Clear,290,2012-10-19 14:15:00
10:35 AM,71.6,51.8,50,29.86,10.0,WNW,5.8,-,N/A,,Clear,300,2012-10-19 14:35:00
10:55 AM,71.6,44.6,38,29.86,10.0,WNW,5.8,-,N/A,,Clear,290,2012-10-19 14:55:00
11:15 AM,73.4,44.6,36,29.86,10.0,NW,6.9,-,N/A,,Clear,320,2012-10-19 15:15:00
11:35 AM,73.4,44.6,36,29.86,10.0,WNW,8.1,-,N/A,,Clear,300,2012-10-19 15:35:00
12:15 PM,73.4,41.0,31,29.86,10.0,WNW,6.9,-,N/A,,Clear,290,2012-10-19 16:15:00
12:35 PM,75.2,41.0,29,29.86,10.0,West,5.8,-,N/A,,Clear,270,2012-10-19 16:35:00
1:35 PM,77.0,41.0,28,29.82,10.0,Calm,Calm,-,N/A,,Clear,0,2012-10-19 17:35:00
1:55 PM,77.0,41.0,28,29.81,10.0,West,3.5,-,N/A,,Clear,280,2012-10-19 17:55:00
2:15 PM,77.0,41.0,28,29.81,10.0,SSW,4.6,-,N/A,,Clear,210,2012-10-19 18:15:00
3:15 PM,77.0,41.0,28,29.79,10.0,SW,9.2,-,N/A,,Clear,230,2012-10-19 19:15:00
3:35 PM,77.0,42.8,29,29.78,10.0,South,5.8,-,N/A,,Clear,190,2012-10-19 19:35:00
3:55 PM,77.0,42.8,29,29.77,10.0,South,6.9,-,N/A,,Clear,190,2012-10-19 19:55:00
4:15 PM,77.0,44.6,32,29.77,10.0,South,3.5,-,N/A,,Clear,190,2012-10-19 20:15:00
4:35 PM,77.0,44.6,32,29.77,10.0,South,4.6,-,N/A,,Clear,190,2012-10-19 20:35:00
5:15 PM,77.0,44.6,32,29.76,10.0,SSW,4.6,-,N/A,,Clear,200,2012-10-19 21:15:00
5:35 PM,77.0,44.6,32,29.76,10.0,South,5.8,-,N/A,,Clear,190,2012-10-19 21:35:00
5:55 PM,75.2,46.4,36,29.76,10.0,SSW,4.6,-,N/A,,Clear,200,2012-10-19 21:55:00
6:15 PM,73.4,44.6,36,29.76,10.0,SSW,4.6,-,N/A,,Clear,200,2012-10-19 22:15:00
6:35 PM,71.6,48.2,43,29.76,10.0,South,4.6,-,N/A,,Clear,190,2012-10-19 22:35:00
6:55 PM,68.0,51.8,56,29.76,10.0,Calm,Calm,-,N/A,,Clear,0,2012-10-19 22:55:00
7:15 PM,64.4,53.6,68,29.77,10.0,Calm,Calm,-,N/A,,Clear,0,2012-10-19 23:15:00
7:35 PM,64.4,53.6,68,29.77,10.0,Calm,Calm,-,N/A,,Clear,0,2012-10-19 23:35:00
7:55 PM,62.6,53.6,72,29.78,10.0,Calm,Calm,-,N/A,,Clear,0,2012-10-19 23:55:00
8:15 PM,60.8,53.6,77,29.78,10.0,Calm,Calm,-,N/A,,Clear,0,2012-10-20 00:15:00
8:35 PM,60.8,51.8,72,29.79,10.0,Calm,Calm,-,N/A,,Clear,0,2012-10-20 00:35:00
8:55 PM,59.0,50.0,72,29.79,10.0,Calm,Calm,-,N/A,,Clear,0,2012-10-20 00:55:00
9:15 PM,59.0,46.4,63,29.80,10.0,Calm,Calm,-,N/A,,Clear,0,2012-10-20 01:15:00
9:35 PM,59.0,51.8,77,29.80,10.0,Calm,Calm,-,N/A,,Clear,0,2012-10-20 01:35:00
9:55 PM,57.2,51.8,82,29.80,10.0,Calm,Calm,-,N/A,,Clear,0,2012-10-20 01:55:00
10:15 PM,59.0,51.8,77,29.81,10.0,SSW,3.5,-,N/A,,Clear,210,2012-10-20 02:15:00
10:35 PM,60.8,51.8,72,29.82,10.0,SSW,3.5,-,N/A,,Clear,200,2012-10-20 02:35:00
11:15 PM,60.8,53.6,77,29.83,10.0,Calm,Calm,-,N/A,,Clear,0,2012-10-20 03:15:00
11:55 PM,66.2,53.6,64,29.83,10.0,SW,4.6,-,N/A,,Clear,220,2012-10-20 03:55:00